^^
Station Historical Data
 
Daily Summary for November 23, 2014 Units:  English    Metric   Both
« Previous Day
Next Day »
Daily Weekly Monthly Yearly Custom
  Current: High: Low: Average:
Temperature: 79.7 °F 79.7 °F 69.2 °F 71.7 °F
Dew Point: 73.3 °F 73.7 °F 66.6 °F 69.9 °F
Humidity: 81% 97% 81% 94%
Wind Speed: 3.0mph 6.0mph 0.0mph 1.9mph
Wind Gust: 14.0mph 14.0mph - -
WindSouth - - SE
Pressure: 29.95 in 30.08 in 29.95 in -
Precipitation: 0.15 in      
Historical Graphs
 
 
Tabular Data for November 23, 2014
Time Temperature Dew Point Pressure Wind Wind Speed Wind Gust Humidity Rainfall Rate (Hourly) solar Conditions
00:00 69.6 °F 66.6 °F 30.08 in ESE 1.0 mph 5.0 mph 90% 0.00 in 0.0 W/m2 RA
00:10 69.7 °F 66.6 °F 30.08 in Calm   4.0 mph 90% 0.00 in 0.0 W/m2 OVC
00:20 69.7 °F 66.6 °F 30.08 in Calm   2.0 mph 90% 0.00 in 0.0 W/m2 OVC
00:30 69.4 °F 66.7 °F 30.07 in Calm   4.0 mph 91% 0.00 in 0.0 W/m2 OVC
00:40 69.3 °F 66.9 °F 30.06 in East 2.0 mph 6.0 mph 92% 0.00 in 0.0 W/m2 RA
00:45 69.4 °F 66.9 °F 30.06 in East 2.0 mph 5.0 mph 92% 0.00 in 0.0 W/m2 OVC
00:50 69.4 °F 67.0 °F 30.06 in East 1.0 mph 7.0 mph 92% 0.00 in 0.0 W/m2 OVC
01:00 69.4 °F 66.9 °F 30.05 in ESE 1.0 mph 4.0 mph 92% 0.00 in 0.0 W/m2 OVC
01:10 69.2 °F 67.1 °F 30.05 in East 1.0 mph 6.0 mph 93% 0.00 in 0.0 W/m2 RA
01:15 69.2 °F 67.1 °F 30.05 in East 1.0 mph 4.0 mph 93% 0.00 in 0.0 W/m2 OVC
01:20 69.2 °F 67.1 °F 30.05 in Calm   4.0 mph 93% 0.00 in 0.0 W/m2 OVC
01:30 69.3 °F 67.2 °F 30.05 in Calm   5.0 mph 93% 0.00 in 0.0 W/m2 OVC
01:40 69.3 °F 67.2 °F 30.04 in ESE 1.0 mph 6.0 mph 93% 0.00 in 0.0 W/m2 OVC
01:45 69.3 °F 67.2 °F 30.04 in ESE 1.0 mph 4.0 mph 93% 0.00 in 0.0 W/m2 OVC
01:50 69.3 °F 67.2 °F 30.03 in East 1.0 mph 5.0 mph 93% 0.00 in 0.0 W/m2 OVC
01:55 69.4 °F 67.3 °F 30.03 in ENE 3.0 mph 7.0 mph 93% 0.00 in 0.0 W/m2 OVC
02:00 69.5 °F 67.4 °F 30.03 in Calm   6.0 mph 93% 0.00 in 0.0 W/m2 OVC
02:10 69.6 °F 67.5 °F 30.03 in ESE 1.0 mph 8.0 mph 93% 0.00 in 0.0 W/m2 RA
02:15 69.6 °F 67.5 °F 30.02 in ESE 1.0 mph 5.0 mph 93% 0.00 in 0.0 W/m2 OVC
02:20 69.5 °F 67.7 °F 30.03 in ESE 1.0 mph 7.0 mph 94% 0.00 in 0.0 W/m2 OVC
02:30 69.4 °F 67.6 °F 30.02 in ESE 1.0 mph 5.0 mph 94% 0.00 in 0.0 W/m2 OVC
02:40 69.3 °F 67.8 °F 30.02 in ESE 1.0 mph 5.0 mph 95% 0.00 in 0.0 W/m2 OVC
02:45 69.2 °F 67.7 °F 30.02 in SE 1.0 mph 5.0 mph 95% 0.00 in 0.0 W/m2 OVC
02:50 69.2 °F 67.7 °F 30.01 in SE 1.0 mph 4.0 mph 95% 0.00 in 0.0 W/m2 OVC
03:00 69.3 °F 68.1 °F 30.01 in ESE 1.0 mph 12.0 mph 96% 0.00 in 0.0 W/m2 RA
03:10 69.3 °F 68.1 °F 30.01 in ESE 2.0 mph 7.0 mph 96% 0.00 in 0.0 W/m2 -RA
03:15 69.3 °F 68.2 °F 30.01 in ESE 1.0 mph 6.0 mph 96% 0.00 in 0.0 W/m2 -RA
03:20 69.4 °F 68.2 °F 30.00 in ESE 1.0 mph 6.0 mph 96% 0.00 in 0.0 W/m2 -RA
03:30 69.4 °F 68.2 °F 30.00 in ESE 2.0 mph 6.0 mph 96% 0.00 in 0.0 W/m2 -RA
03:40 69.5 °F 68.3 °F 30.00 in ESE 1.0 mph 5.0 mph 96% 0.00 in 0.0 W/m2 OVC
03:45 69.5 °F 68.3 °F 29.99 in ESE 1.0 mph 3.0 mph 96% 0.00 in 0.0 W/m2 OVC
03:50 69.6 °F 68.4 °F 29.99 in ESE 1.0 mph 12.0 mph 96% 0.00 in 0.0 W/m2 OVC
04:00 69.6 °F 68.4 °F 29.99 in ESE 1.0 mph 4.0 mph 96% 0.01 in 0.0 W/m2 RA
04:10 69.6 °F 68.7 °F 29.99 in ESE 2.0 mph 8.0 mph 97% 0.01 in 0.0 W/m2 -RA
04:15 69.7 °F 68.8 °F 29.99 in ESE 2.0 mph 6.0 mph 97% 0.00 in 0.0 W/m2 -RA
04:20 69.7 °F 68.8 °F 29.98 in ESE 3.0 mph 8.0 mph 97% 0.00 in 0.0 W/m2 -RA
04:30 69.9 °F 69.0 °F 29.99 in SE 2.0 mph 5.0 mph 97% 0.01 in 0.0 W/m2 -RA
04:40 70.1 °F 69.2 °F 29.98 in SE 3.0 mph 6.0 mph 97% 0.00 in 0.0 W/m2 -RA
04:45 70.1 °F 69.2 °F 29.98 in SSE 1.0 mph 5.0 mph 97% 0.00 in 0.0 W/m2 -RA
04:50 70.2 °F 69.3 °F 29.98 in SSE 1.0 mph 5.0 mph 97% 0.00 in 0.0 W/m2 -RA
05:00 70.3 °F 69.4 °F 29.98 in SE 2.0 mph 6.0 mph 97% 0.00 in 0.0 W/m2 -RA
05:10 70.5 °F 69.6 °F 29.98 in SE 2.0 mph 7.0 mph 97% 0.00 in 0.0 W/m2 -RA
05:15 70.5 °F 69.6 °F 29.98 in Calm   5.0 mph 97% 0.00 in 0.0 W/m2 -RA
05:20 70.5 °F 69.6 °F 29.98 in SE 2.0 mph 5.0 mph 97% 0.00 in 0.0 W/m2 -RA
05:30 70.6 °F 69.7 °F 29.98 in Calm   5.0 mph 97% 0.00 in 0.0 W/m2 -RA
05:40 70.6 °F 69.7 °F 29.97 in ESE 1.0 mph 6.0 mph 97% 0.00 in 0.0 W/m2 -RA
05:45 70.6 °F 69.7 °F 29.97 in ESE 1.0 mph 9.0 mph 97% 0.00 in 0.0 W/m2 -RA
05:50 70.6 °F 69.7 °F 29.97 in ESE 1.0 mph 4.0 mph 97% 0.00 in 0.0 W/m2 -RA
05:55 70.6 °F 69.7 °F 29.97 in ESE 1.0 mph 7.0 mph 97% 0.00 in 0.0 W/m2 -RA
06:00 70.6 °F 69.7 °F 29.97 in SE 2.0 mph 6.0 mph 97% 0.00 in 0.0 W/m2 -RA
06:10 70.7 °F 69.8 °F 29.97 in SE 2.0 mph 4.0 mph 97% 0.00 in 0.0 W/m2 RA
06:15 70.7 °F 69.8 °F 29.97 in SSE 2.0 mph 6.0 mph 97% 0.00 in 0.0 W/m2 FEW
06:20 70.7 °F 69.8 °F 29.98 in Calm   2.0 mph 97% 0.00 in 0.0 W/m2 FEW
06:30 70.7 °F 69.8 °F 29.98 in SE 1.0 mph 4.0 mph 97% 0.00 in 0.0 W/m2 FEW
06:40 70.8 °F 69.9 °F 29.98 in SE 1.0 mph 5.0 mph 97% 0.00 in 0.0 W/m2 FEW
06:45 70.9 °F 70.0 °F 29.98 in SE 2.0 mph 5.0 mph 97% 0.00 in 0.0 W/m2 FEW
06:50 70.9 °F 70.0 °F 29.98 in Calm   6.0 mph 97% 0.00 in 0.0 W/m2 FEW
07:00 70.9 °F 70.0 °F 29.99 in Calm   4.0 mph 97% 0.00 in 0.0 W/m2 FEW
07:10 71.0 °F 70.1 °F 29.99 in SSE 1.0 mph 4.0 mph 97% 0.00 in 0.0 W/m2 RA
07:15 71.1 °F 70.2 °F 29.99 in SE 2.0 mph 6.0 mph 97% 0.00 in 0.0 W/m2 OVC
07:20 71.1 °F 70.2 °F 29.99 in SE 1.0 mph 4.0 mph 97% 0.00 in 0.0 W/m2 OVC
07:25 71.2 °F 70.3 °F 29.99 in SE 2.0 mph 4.0 mph 97% 0.00 in 0.0 W/m2 OVC
07:30 71.2 °F 70.3 °F 29.99 in SE 2.0 mph 5.0 mph 97% 0.00 in 0.0 W/m2 OVC
07:40 71.5 °F 70.6 °F 29.99 in SSE 2.0 mph 7.0 mph 97% 0.00 in 0.0 W/m2 OVC
07:45 71.6 °F 70.7 °F 29.99 in SSE 2.0 mph 7.0 mph 97% 0.00 in 0.0 W/m2 OVC
07:50 71.6 °F 70.7 °F 29.98 in SE 2.0 mph 6.0 mph 97% 0.00 in 0.0 W/m2 OVC
08:00 71.8 °F 70.9 °F 29.98 in SE 2.0 mph 12.0 mph 97% 0.00 in 0.0 W/m2 OVC
08:10 72.0 °F 71.1 °F 29.98 in SE 3.0 mph 8.0 mph 97% 0.00 in 0.0 W/m2 OVC
08:15 72.0 °F 71.1 °F 29.98 in SE 5.0 mph 12.0 mph 97% 0.00 in 0.0 W/m2 OVC
08:20 72.1 °F 71.2 °F 29.98 in SE 3.0 mph 9.0 mph 97% 0.00 in 0.0 W/m2 OVC
08:30 72.3 °F 71.1 °F 29.98 in SSE 3.0 mph 12.0 mph 96% 0.00 in 0.0 W/m2 OVC
08:40 72.5 °F 71.3 °F 29.98 in SSE 3.0 mph 7.0 mph 96% 0.00 in 0.0 W/m2 OVC
08:45 72.6 °F 71.4 °F 29.98 in SE 2.0 mph 8.0 mph 96% 0.00 in 0.0 W/m2 OVC
08:50 72.7 °F 71.5 °F 29.98 in South 5.0 mph 12.0 mph 96% 0.00 in 0.0 W/m2 OVC
09:00 73.0 °F 71.8 °F 29.98 in South 6.0 mph 8.0 mph 96% 0.00 in 0.0 W/m2 OVC
09:10 73.4 °F 71.9 °F 29.99 in SSE 2.0 mph 7.0 mph 95% 0.00 in 0.0 W/m2 OVC
09:15 73.7 °F 72.2 °F 29.99 in SSE 2.0 mph 6.0 mph 95% 0.00 in 0.0 W/m2 OVC
09:20 73.9 °F 72.4 °F 29.99 in SSE 5.0 mph 10.0 mph 95% 0.00 in 0.0 W/m2 OVC
09:30 74.2 °F 72.4 °F 29.99 in SSE 6.0 mph 12.0 mph 94% 0.00 in 0.0 W/m2 OVC
09:40 74.5 °F 72.3 °F 30.00 in South 5.0 mph 10.0 mph 93% 0.00 in 0.0 W/m2 OVC
09:45 74.7 °F 72.5 °F 30.00 in SSE 2.0 mph 9.0 mph 93% 0.00 in 0.0 W/m2 OVC
09:50 74.9 °F 72.7 °F 30.00 in SE 2.0 mph 7.0 mph 93% 0.00 in 0.0 W/m2 OVC
09:55 75.1 °F 72.6 °F 30.00 in SSE 3.0 mph 8.0 mph 92% 0.00 in 0.0 W/m2 OVC
10:00 75.3 °F 72.5 °F 29.99 in SSE 3.0 mph 12.0 mph 91% 0.00 in 0.0 W/m2 OVC
10:10 75.9 °F 73.1 °F 29.98 in SSE 5.0 mph 9.0 mph 91% 0.00 in 0.0 W/m2 OVC
10:15 76.4 °F 73.2 °F 29.99 in SSE 5.0 mph 14.0 mph 90% 0.00 in 0.0 W/m2 OVC
10:20 76.9 °F 73.4 °F 29.99 in South 3.0 mph 11.0 mph 89% 0.00 in 0.0 W/m2 OVC
10:30 77.5 °F 73.3 °F 29.99 in South 3.0 mph 9.0 mph 87% 0.00 in 0.0 W/m2 OVC
10:40 77.9 °F 73.4 °F 29.99 in South 3.0 mph 9.0 mph 86% 0.00 in 0.0 W/m2 OVC
10:45 78.3 °F 73.7 °F 29.98 in South 1.0 mph 12.0 mph 86% 0.00 in 0.0 W/m2 OVC
10:50 78.5 °F 73.6 °F 29.98 in South 3.0 mph 12.0 mph 85% 0.00 in 0.0 W/m2 OVC
11:00 78.7 °F 73.5 °F 29.98 in South 2.0 mph 12.0 mph 84% 0.00 in 0.0 W/m2 OVC
11:10 78.5 °F 73.3 °F 29.98 in SSW 2.0 mph 12.0 mph 84% 0.00 in 0.0 W/m2 OVC
11:15 78.5 °F 73.3 °F 29.97 in South 5.0 mph 9.0 mph 84% 0.00 in 0.0 W/m2 OVC
11:20 79.0 °F 73.7 °F 29.97 in South 2.0 mph 5.0 mph 84% 0.00 in 0.0 W/m2 OVC
11:30 79.7 °F 73.7 °F 29.97 in SSW 3.0 mph 6.0 mph 82% 0.00 in 0.0 W/m2 OVC
11:40 79.7 °F 73.3 °F 29.95 in South 3.0 mph 14.0 mph 81% 0.00 in 0.0 W/m2 OVC
Lake Mary, FL, USA
Compliments of Weather Underground